www.pogodaiklimat.ru

Погода и климат >> Архив погоды >> Венгрия >> Сентготтхард


ПОГОДА в Сентготтхарде

  • Прогноз погоды в Сентготтхарде
  • Монитор погоды в Сентготтхарде

АРХИВ ПОГОДЫ в Сентготтхарде

Время (UTC), дата Ветер
(напр.,м/с)
 
Видим.   Явления Облачность Т
(С)
Тd
(С)
f
(%)
Тe
(С)
Тes
(С)
Комфортность P
(гПа)
Po
(гПа)
Тmin
(С)
Tmax
(С)
R
(мм)
R24
(мм)
S
(см)
01 17.02 З 1 н/о н/о +2.2 -0.9 80 +1 +1 1030.3 991.1
02 17.02 штиль 0 н/о н/о +0.8 -1.3 86 -0 -0 1030.0 990.6
03 17.02 штиль 0 н/о н/о -0.7 -1.8 92 -2 -2 1029.8 990.2
04 17.02 штиль 0 н/о н/о -1.1 -2.1 93 -2 -2 1029.8 990.1
05 17.02 штиль 0 н/о н/о -1.4 -1.8 97 -3 -3 1029.8 990.1
06 17.02 штиль 0 н/о н/о -1.2 -1.6 97 -3 -3 1029.9 990.2 -1.5
07 17.02 ЮЗ 1 н/о н/о +0.2 -0.8 93 -2 -2 1030.2 990.7
08 17.02 штиль 0 н/о н/о +5.8 -0.1 66 +5 +5 1029.6 990.9
09 17.02 штиль 0 н/о н/о +9.0 +0.7 56 +9 +9 1029.1 990.9
10 17.02 Ю 1 н/о н/о +12.6 0.0 42 +13 +13 1028.4 990.7
11 17.02 Ю 2 н/о н/о +14.1 -1.1 35 +14 +14 1027.9 990.4
12 17.02 Ю 2 н/о н/о +14.7 -0.2 36 +15 +15 1027.0 989.6
13 17.02 Ю 2 н/о н/о +14.6 -0.3 36 +15 +15 1026.4 989.0
14 17.02 Ю 2 н/о н/о +14.3 -1.3 34 +14 +14 1026.0 988.6
15 17.02 Ю 2 н/о н/о +13.0 -1.3 37 +13 +13 1026.0 988.4
16 17.02 Ю 1 н/о н/о +10.7 -0.4 46 +11 +11 1026.1 988.2
17 17.02 ЮВ 1 н/о н/о +7.8 +0.1 58 +7 +7 1026.6 988.3
18 17.02 Ю 1 н/о н/о +6.6 +0.3 64 +6 +6 1027.0 988.5 +15.0
19 17.02 Ю 2 н/о н/о +6.2 +0.9 69 +4 +4 1026.9 988.4
20 17.02 Ю 1 н/о н/о +5.4 +1.0 73 +4 +4 1027.3 988.6
21 17.02 З 1 н/о н/о +4.6 +0.6 75 +3 +3 1027.4 988.6
22 17.02 СЗ 1 н/о н/о +3.9 +0.6 79 +3 +3 1027.2 988.3
23 17.02 штиль 0 н/о н/о +1.7 -0.4 86 +1 +1 1027.4 988.2
00 18.02 штиль 0 н/о н/о +1.2 -0.3 90 0 0 1027.2 988.0
01 18.02 СЗ 1 н/о н/о +1.2 -0.3 90 -1 -1 1026.9 987.7
02 18.02 СЗ 1 н/о н/о +0.7 -0.4 92 -1 -1 1026.6 987.3
03 18.02 СЗ 1 н/о н/о +0.5 -0.5 93 -2 -2 1026.3 987.0
04 18.02 СЗ 1 н/о н/о -0.1 -0.8 95 -2 -2 1026.4 987.0
05 18.02 СЗ 1 н/о н/о -0.4 -1.2 94 -3 -3 1026.1 986.7
06 18.02 СЗ 1 н/о н/о -1.0 -1.4 97 -3 -3 1026.1 986.6 -1.2
07 18.02 З 1 н/о н/о +0.5 -0.6 92 -2 -2 1026.5 987.2
08 18.02 штиль 0 н/о н/о +5.7 +1.8 76 +5 +5 1026.0 987.4
09 18.02 Ю 1 н/о н/о +9.2 +1.1 57 +9 +9 1025.3 987.2
10 18.02 Ю 1 н/о н/о +11.9 +0.7 46 +12 +12 1024.8 987.1
11 18.02 Ю 3 н/о н/о +13.0 -0.3 40 +12 +12 1024.1 986.6
12 18.02 Ю 2 н/о н/о +13.9 +0.2 39 +14 +14 1023.2 985.8
13 18.02 Ю 2 н/о н/о +13.6 -0.4 38 +13 +13 1022.4 985.0
14 18.02 Ю 2 н/о н/о +13.2 -0.4 39 +13 +13 1021.9 984.5
15 18.02 Ю 2 н/о н/о +12.3 -0.2 42 +12 +12 1021.8 984.3
16 18.02 ЮВ 1 н/о н/о +10.2 +0.2 50 +10 +10 1021.8 984.0
17 18.02 штиль 0 н/о н/о +7.4 -0.1 59 +7 +7 1022.2 984.0
18 18.02 Ю 1 н/о н/о +6.4 -0.1 63 +6 +6 1022.3 984.0 +14.1
19 18.02 ЮВ 1 н/о н/о +5.4 -0.2 67 +5 +5 1022.2 983.7
20 18.02 Ю 1 н/о н/о +4.7 +0.1 72 +4 +4 1022.2 983.6
21 18.02 Ю 1 н/о н/о +4.3 +0.3 75 +3 +3 1021.9 983.3
22 18.02 штиль 0 н/о н/о +3.3 0.0 79 +2 +2 1021.7 983.0
23 18.02 штиль 0 н/о н/о +2.8 -0.1 81 +2 +2 1021.4 982.6
00 19.02 штиль 0 н/о н/о +1.9 -0.7 83 +1 +1 1021.3 982.4
01 19.02 Ю 1 н/о н/о +2.0 -0.3 85 0 0 1020.8 981.9
02 19.02 ЮЗ 1 н/о н/о +1.2 -0.6 88 -1 -1 1020.4 981.4
03 19.02 штиль 0 н/о н/о +0.2 -0.9 92 -1 -1 1020.2 981.1
04 19.02 штиль 0 н/о н/о -0.3 -1.1 94 -2 -2 1020.2 981.0
05 19.02 СЗ 2 н/о н/о -1.1 -1.7 96 -5 -5 1020.3 981.0
06 19.02 штиль 0 н/о н/о -2.0 -2.5 96 -3 -3 1020.8 981.4 -2.0
07 19.02 СЗ 1 н/о н/о -0.6 -1.4 94 -3 -3 1021.3 982.0
08 19.02 СЗ 2 н/о н/о +2.1 -0.8 81 -1 -1 1021.2 982.3
09 19.02 штиль 0 н/о н/о +5.6 +0.4 69 +5 +5 1021.0 982.6
10 19.02 С 1 н/о н/о +8.2 +0.2 57 +8 +8 1020.9 982.9
11 19.02 В 1 н/о н/о +11.1 +0.8 49 +11 +11 1020.2 982.6
12 19.02 В 2 н/о н/о +12.1 -0.7 41 +12 +12 1019.8 982.3
13 19.02 В 2 н/о н/о +12.3 -2.0 37 +12 +12 1019.6 982.1
14 19.02 В 1 н/о н/о +12.2 -1.7 38 +13 +13 1019.6 982.1
15 19.02 В 2 н/о н/о +11.5 -1.3 41 +11 +11 1019.8 982.2
16 19.02 штиль 0 н/о н/о +9.2 -0.4 51 +9 +9 1020.1 982.2
17 19.02 штиль 0 н/о н/о +6.8 -0.4 60 +6 +6 1020.5 982.3
18 19.02 ЮЗ 1 н/о н/о +5.6 -0.5 65 +5 +5 1021.1 982.7 +12.6
19 19.02 штиль 0 н/о н/о +5.2 -0.6 66 +5 +5 1021.2 982.7
20 19.02 СЗ 1 н/о н/о +5.3 -0.1 68 +4 +4 1021.5 983.0
21 19.02 СЗ 2 н/о н/о +4.5 -0.5 70 +2 +2 1021.8 983.2
22 19.02 З 1 н/о н/о +3.3 -0.5 76 +2 +2 1021.7 983.0
23 19.02 СЗ 1 н/о н/о +3.2 -0.3 78 +2 +2 1021.9 983.1
00 20.02 З 1 н/о н/о +2.2 -0.9 80 +1 +1 1021.9 983.0
01 20.02 СЗ 2 н/о н/о +2.5 -0.6 80 -1 -1 1022.0 983.1
02 20.02 СЗ 2 н/о н/о +2.1 -0.8 81 -1 -1 1022.0 983.1
03 20.02 З 2 н/о н/о +2.1 -0.8 81 -1 -1 1022.1 983.2
04 20.02 штиль 0 н/о н/о +2.3 -0.8 80 +1 +1 1022.7 983.8
05 20.02 штиль 0 н/о н/о +1.8 -0.8 83 +1 +1 1023.0 984.0
06 20.02 В 1 н/о н/о +2.6 -0.3 81 +1 +1 1023.5 984.6 +1.7
07 20.02 В 1 н/о н/о +3.6 +0.5 80 +2 +2 1024.2 985.4
08 20.02 ЮВ 1 н/о н/о +6.1 +2.0 75 +5 +5 1024.5 986.0
09 20.02 В 2 н/о н/о +7.0 +2.1 71 +5 +5 1024.7 986.4
10 20.02 В 2 н/о н/о +9.3 +2.4 62 +8 +8 1024.8 986.8
11 20.02 В 1 н/о н/о +9.6 +2.5 61 +9 +9 1024.8 986.8
12 20.02 В 1 н/о н/о +10.2 +2.6 59 +10 +10 1024.4 986.5
13 20.02 СВ 1 н/о н/о +10.8 +2.4 56 +11 +11 1024.1 986.3
14 20.02 В 2 н/о н/о +11.3 +2.6 55 +10 +10 1023.9 986.2
15 20.02 В 2 н/о н/о +10.7 +2.8 58 +10 +10 1024.0 986.2
16 20.02 В 1 н/о н/о +9.5 +2.4 61 +9 +9 1024.2 986.2
17 20.02 штиль 0 н/о н/о +6.9 +2.2 72 +6 +6 1025.0 986.6
18 20.02 В 1 н/о н/о +6.7 +2.0 72 +6 +6 1025.6 987.2 +11.5
19 20.02 В 1 н/о н/о +5.6 +1.5 75 +5 +5 1026.2 987.6
20 20.02 штиль 0 н/о н/о +4.7 +1.2 78 +4 +4 1027.0 988.3
21 20.02 штиль 0 н/о н/о +4.6 +1.3 79 +4 +4 1027.2 988.4
22 20.02 штиль 0 н/о н/о +4.6 +1.1 78 +4 +4 1027.5 988.7
23 20.02 штиль 0 н/о н/о +4.0 +1.0 81 +3 +3 1027.9 989.0
00 21.02 штиль 0 н/о н/о +2.8 +0.5 85 +2 +2 1028.3 989.2
01 21.02 штиль 0 н/о н/о +2.5 +0.6 87 +1 +1 1028.6 989.5
02 21.02 штиль 0 н/о н/о +2.0 +0.7 91 +1 +1 1028.8 989.6
03 21.02 СЗ 1 н/о н/о +1.8 +0.8 93 -0 -0 1028.9 989.7
04 21.02 З 1 н/о н/о +1.6 +1.0 96 -0 -0 1029.3 990.0
05 21.02 З 1 н/о н/о +2.5 +1.3 92 +1 +1 1029.1 990.0
06 21.02 ЮЗ 1 н/о н/о +1.9 +1.0 94 0 0 1029.3 990.1 +1.4
07 21.02 штиль 0 н/о н/о +3.2 +1.9 91 +2 +2 1029.7 990.6
08 21.02 ЮЗ 1 н/о н/о +7.0 +2.1 71 +6 +6 1029.2 990.7
09 21.02 Ю 2 н/о н/о +10.0 +2.4 59 +9 +9 1028.7 990.6
10 21.02 ЮЗ 2
{7}
н/о н/о +11.5 +1.7 51 +11 +11 1028.3 990.4
11 21.02 ЮЗ 2
{7}
н/о н/о +12.5 +1.5 47 +12 +12 1027.5 989.8
12 21.02 Ю 2 н/о н/о +13.1 +2.3 48 +13 +13 1026.8 989.2
13 21.02 ЮЗ 2 н/о н/о +13.1 +2.1 47 +13 +13 1026.1 988.5
14 21.02 Ю 2 н/о н/о +13.0 +2.0 47 +13 +13 1025.8 988.2
15 21.02 Ю 1 н/о н/о +12.5 +1.8 48 +13 +13 1025.4 987.8
16 21.02 ЮЗ 1 н/о н/о +11.2 +2.0 53 +11 +11 1025.3 987.5
17 21.02 штиль 0 н/о н/о +8.5 +1.6 62 +8 +8 1025.8 987.6
18 21.02 штиль 0 н/о н/о +8.0 +1.8 65 +7 +7 1026.1 987.8 +13.3
19 21.02 З 1 н/о н/о +8.4 +2.0 64 +8 +8 1025.8 987.6
20 21.02 н/о н/о +7.8 +4.6 80 1026.4 988.1
21 21.02 штиль 0 н/о н/о +6.3 +5.7 96 +5 +5 1025.9 987.4
22 21.02 Ю 1 н/о н/о +5.9 +5.5 97 +5 +5 1025.6 987.1
23 21.02 ЮЗ 1 н/о н/о +6.3 +4.9 91 +5 +5 1025.2 986.7
00 22.02 штиль 0 н/о н/о +6.9 +4.4 84 +6 +6 1025.2 986.8 0.2
01 22.02 Ю 1 н/о н/о +5.3 +3.8 90 +4 +4 1025.1 986.5
02 22.02 СЗ 1 н/о н/о +4.9 +3.7 92 +3 +3 1024.4 985.8
03 22.02 штиль 0 н/о н/о +3.8 +2.8 93 +3 +3 1024.1 985.3
04 22.02 штиль 0 н/о н/о +4.4 +3.7 95 +3 +3 1023.6 984.9
05 22.02 ЮЗ 1 н/о н/о +4.1 +3.5 96 +3 +3 1023.2 984.5
06 22.02 С 2 н/о н/о +5.3 +3.8 90 +3 +3 1023.5 985.0 +3.8 0.3
07 22.02 СЗ 2 н/о н/о +5.6 +4.4 92 +3 +3 1023.9 985.4
08 22.02 СЗ 2 н/о н/о +7.1 +4.1 81 +5 +5 1024.2 985.9
09 22.02 С 1 н/о н/о +9.1 +4.3 72 +9 +9 1024.2 986.2
10 22.02 С 3
{8}
н/о н/о +9.4 +4.0 69 +7 +7 1024.7 986.7
11 22.02 С 4
{14}
н/о н/о +9.8 +4.2 68 +7 +7 1025.0 987.0
12 22.02 С 3
{11}
н/о н/о +9.0 +5.0 76 +7 +7 1025.4 987.3 0.1
13 22.02 С 3
{12}
н/о н/о +8.0 +3.7 74 +5 +5 1026.2 987.9
14 22.02 С 5
{15}
н/о н/о +8.3 +0.8 59 +5 +5 1026.9 988.6
15 22.02
{14}
н/о н/о +7.7 0.0 58 1028.0 989.6
16 22.02 С 5
{14}
н/о н/о +5.7 -0.6 64 +2 +2 1029.4 990.7
17 22.02 С 3
{11}
н/о н/о +4.1 -1.7 66 +1 +1 1031.1 992.1
18 22.02 С 4
{10}
н/о н/о +2.5 -2.8 68 -2 -2 1033.1 993.8 +10.3 0.1
19 22.02 С 5
{13}
н/о н/о +1.8 -4.3 64 -3 -3 1033.8 994.4
20 22.02 С 4
{14}
н/о н/о +1.2 -5.9 59 -3 -3 1035.3 995.8
21 22.02 С 5
{14}
н/о н/о +0.2 -6.6 60 -5 -5 1036.4 996.7
22 22.02 С 5
{14}
н/о н/о -0.5 -7.3 60 -6 -6 1037.5 997.6
23 22.02 С 3
{13}
н/о н/о -1.3 -8.9 56 -6 -6 1038.9 998.9
00 23.02 СВ 3
{11}
н/о н/о -2.0 -9.8 55 -6 -6 1039.9 999.7
01 23.02 СВ 3
{10}
н/о н/о -2.8 -10.1 57 -7 -7 1040.8 1000.5
02 23.02 СВ 3
{9}
н/о н/о -3.4 -12.1 51 -8 -8 1041.6 1001.1
03 23.02 С 2
{8}
н/о н/о -4.0 -12.4 52 -8 -8 1042.1 1001.5
04 23.02 С 3
{8}
н/о н/о -4.4 -12.5 53 -9 -9 1042.2 1001.6
05 23.02 С 2
{8}
н/о н/о -5.1 -12.1 58 -9 -9 1042.7 1002.0
06 23.02 В 1 н/о н/о -5.8 -11.9 62 -7 -7 1043.3 1002.4 -5.8
07 23.02 С 2 н/о н/о -4.6 -12.5 54 -8 -8 1043.4 1002.7
08 23.02 С 3
{8}
н/о н/о -3.3 -13.5 45 -8 -8 1043.5 1003.0
09 23.02 СВ 3
{8}
н/о н/о -2.0 -13.8 40 -6 -6 1043.6 1003.3
10 23.02 СВ 3
{9}
н/о н/о -0.8 -13.0 39 -5 -5 1043.8 1003.6
11 23.02 СВ 3
{7}
н/о н/о -0.3 -13.9 35 -4 -4 1043.1 1003.0
12 23.02 СВ 3
{8}
н/о н/о +0.5 -14.3 32 -3 -3 1042.4 1002.5
13 23.02 СВ 3
{9}
н/о н/о +0.6 -13.8 33 -3 -3 1041.7 1001.8
14 23.02 СВ 3
{8}
н/о н/о +0.6 -13.5 34 -3 -3 1041.1 1001.2
15 23.02 СВ 3
{7}
н/о н/о +0.5 -13.2 35 -3 -3 1040.7 1000.8
16 23.02 В 2
{7}
н/о н/о -1.0 -12.6 41 -4 -4 1041.1 1001.0
17 23.02 СВ 2 н/о н/о -1.8 -12.2 45 -5 -5 1041.9 1001.7
18 23.02 СВ 2 н/о н/о -2.4 -11.7 49 -6 -6 1042.5 1002.2 +1.2
22 23.02 СВ 2 н/о н/о -3.3 -11.0 55 -7 -7 1043.0 1002.5

 

Местоположение метеостанции Сентготтхард (Венгрия): широта 46.92 долгота 16.32 высота над уровнем моря 313 м.

В архиве по умолчанию представлена погода в Сентготтхарде за последнюю неделю. Архивные данные за месяц целиком и за предыдущие месяцы, начиная с января 2011 года, Вы можете получить, выбрав интересующий диапазон дат из раскрывающегося списка и нажав кнопку "Ввод!".


*Определитесь, кто Вы:
робот инопланетянин человек

Внимание! Время в таблицах - всемирное. Для получения местного времени необходимо прибавить поправку, которая равна 1 ч.

Смотрите также архив погоды в соседних городах и на ближайших метеорологических станциях:

Погода в Кляйнциккене (Австрия) (31 км)
Погода в Мурска-Соботе (Словения) (32 км)
Погода в Бад-Глайхенбере (Австрия) (32 км)
Погода в Фельбахе (Австрия) (34 км)
Погода в Залаэгерсеге (Венгрия) (37 км)
Погода в Бад-Радкерсбурге (Австрия) (37 км)
Погода в Сомбатхее (Венгрия) (45 км)
Погода в Бад-Тацмансдорфе (Австрия) (46 км)
Погода в Хартберге (Австрия) (48 км)
Погода в Ласницхёэ (Австрия) (59 км)

Пояснения к столбцам:

Ветер - указаны скорость ветра в м/с - средняя за 10 мин, порывы в срок и между сроками (в фигурных скобках) и направление, откуда дует ветер: С - северный, СВ - северо-восточный, В - восточный, ЮВ - юго-восточный, Ю - южный, ЮЗ - юго-западный, З - западный, СЗ - северо-западный.
Видимость - горизонтальная дальность видимости в метрах или километрах. При видимости от 1 до 10 км при отсутствии осадков обычно наблюдается дымка, при ухудшении видимости до 1 км и менее - туман. В сухую погоду видимость может ухудшаться дымом, пылью или мглою.
Явления - указаны атмосферные явления, наблюдавшиеся в срок или в последний час перед сроком; фигурными скобками обозначены явления, наблюдавшиеся между сроками (за 1-3 часа до срока); квадратными скобками обозначены град или гололедные отложения с указанием их диаметра в мм.
Облачность - указаны через наклонную черту общая и нижняя облачность в баллах и высота нижней границы облаков в метрах; квадратными скобками обозначены формы облаков: Ci - перистые, Cs - перисто-слоистые, Cc - перисто-кучевые, Ac - высококучевые, As - высокослоистые, Sc - слоисто-кучевые, Ns - слоисто-дождевые, Cu - кучевые, Cb - кучево-дождевые. Подробнее классификацию облаков см. в Атласе облаков (PDF).
T - Температура воздуха - температура, измеренная на высоте 2 м над землей.
Td - Температура точки росы - температура, при понижении до которой содержащийся в воздухе водяной пар достигнет насыщения.
f - Относительная влажность воздуха - влажноcть воздуха, измеренная на высоте 2 м над землей.
Te - Эффективная температура - температура, которую ощущает одетый по сезону человек в тени. Характеристика душности погоды. При расчете учитывается влияние влажности воздуха и скорости ветра на теплоощущения человека.
Tes - Эффективная температура на солнце - температура, которую ощущает человек, с поправкой на солнечный нагрев. Характеристика знойности погоды. Зависит от высоты солнца над горизонтом, облачности и скорости ветра. Ночью, в пасмурную погоду, а также при ветре 12 м/с и более поправка равна нулю.
P - Атмосферное давление - приведенное к уровню моря атмосферное давление.
Po - Атмосферное давление - измеренное на уровне метеостанции атмосферное давление.
Tmin - Минимальная температура - минимум температуры воздуха на высоте 2 м над землей.
Tmax - Максимальная температура - максимум температуры воздуха на высоте 2 м над землей.
R - Количество осадков - Количество выпавших осадков за период времени, мм. При наведении курсора мыши на число - период времени, за который выпало указанное количество осадков.
R24 - Количество осадков - Количество выпавших осадков за 24 часа, мм.
S - Снежный покров - Высота снежного покрова, см. При наведении курсора мыши на число - состояние снежного покрова и степень покрытия местности в баллах.